Hourly Data Report for September 01, 2017

All times are specified in Local Standard Time (LST). Add 1 hour to adjust for Daylight Saving Time where and when it is observed.

ARCTIC BAY CS
NUNAVUT

72°59'34.000" N
85°00'44.000" W
10.00 m
2400404
71592
XAT

Download Data

Hourly Data (September 2017)
Hourly Data Report for September 1, 2017
Temp Definition
°C
Dew Point Temp Definition
°C
Rel Hum Definition
%
Wind Dir Definition
10's deg

Wind Spd Definition
km/h
Visibility Definition
km
Stn Press Definition
kPa
Hmdx Definition


Wind Chill Definition


Weather Definition


TIME
00:00 3.4 -0.6 75 26 19   99.62     LegendNANA
01:00 3.0 -1.0 75 35 13   99.66     LegendNANA
02:00 2.3 -0.8 80 1 27   99.75     LegendNANA
03:00 2.3 -1.3 77 36 27   99.82     LegendNANA
04:00 1.9 -0.9 82 35 28   99.91     LegendNANA
05:00 1.4 -1.1 84 34 27   99.98     LegendNANA
06:00 0.8 -1.9 82 34 32   100.04     LegendNANA
07:00 0.9 -2.1 80 35 29   100.10     LegendNANA
08:00 1.2 -2.0 79 34 28   100.15     LegendNANA
09:00 1.4 -2.3 76 35 26   100.18     LegendNANA
10:00 1.8 -2.3 74 34 18   100.26     LegendNANA
11:00 1.7 -2.7 73 33 19   100.28     LegendNANA
12:00 2.0 -2.0 75 32 14   100.30     LegendNANA
13:00 2.0 -1.6 77 30 12   100.34     LegendNANA
14:00 2.5 -1.2 76 31 19   100.38     LegendNANA
15:00 2.8 -1.0 76 32 20   100.42     LegendNANA
16:00 2.7 -0.6 79 31 16   100.47     LegendNANA
17:00 2.6 -0.7 79 31 19   100.52     LegendNANA
18:00 2.9 -1.2 74 29 8   100.58     LegendNANA
19:00 2.6 -0.6 79 35 18   100.61     LegendNANA
20:00 2.2 -1.1 78 33 12   100.66     LegendNANA
21:00 1.8 -0.7 83 32 15   100.70     LegendNANA
22:00 1.4 -1.1 83 35 10   100.73     LegendNANA
23:00 1.4 -1.7 80 36 14   100.77     LegendNANA

Notes on Data Quality.

Legend

  • E = Estimated
  • M = Missing
  • NA = Not Available
  • ‡ = Partner data that is not subject to review by the National Climate Archives
Date modified: